Regional Weather Roundup
Issued by NWS Charleston, SC

Current Version | Previous Version | Graphics & Text | Print | Product List | Glossary On
Versions: 1 2 3 4 5 6 7 8 9 10 11 12 13 14 15 16 17 18 19 20 21 22 23 24 25 26 27 28 29 30 31 32 33 34 35 36 37 38 39 40 41 42 43 44 45 46 47 48 49 50
000
ASUS42 KCHS 181427
RWRCHS

REGIONAL WEATHER ROUNDUP
NATIONAL WEATHER SERVICE CHARLESTON SC
900 AM EST WED JAN 18 2017

NOTE: "FAIR" INDICATES FEW OR NO CLOUDS BELOW 12,000 FEET WITH NO
SIGNIFICANT WEATHER AND/OR OBSTRUCTIONS TO VISIBILITY.

NOT ALL STATIONS ARE QUALITY CONTROLLED. USE DATA WITH CAUTION...
ESPECIALLY DEWPOINT OBSERVATIONS.

SCZ027-030-031-034>040-042>050-181500-
...SOUTHEAST SOUTH CAROLINA...

CITY           SKY/WX    TMP DP  RH WIND       PRES   REMARKS
N CHARLESTON   PTSUNNY   64  59  83 SW10      30.10R
WATERFRONT PRK   N/A     63  60  90 W6        30.09S
MOUNT PLEASANT FAIR      64  61  88 W9        30.11R
JOHNS ISLAND   FAIR      66  61  82 W8G16     30.11R
PINOPOLIS        N/A     61  59  94 SW9       29.99R
MONCKS CORNER  FAIR      64  59  82 W7        30.09R
SUMMERVILLE    FAIR      64  64 100 SW6       30.11R
BEAUFORT MCAS  MOSUNNY   64  60  87 SW10      30.12R
BEAUFORT ARPT  FAIR      64  59  82 SW12      30.12R
HILTON HEAD IS SUNNY     68  63  83 SW9       30.13R
WALTERBORO     MOSUNNY   66 N/A N/A W13       30.12R
ALLENDALE      CLOUDY    63  61  94 VRB5      30.13R FOG

...SOUTHERN MIDLANDS AND PEE DEE...

CITY           SKY/WX    TMP DP  RH WIND       PRES   REMARKS
GEORGETOWN     FAIR      63  59  88 W10G16    30.09R
KINGSTREE      FAIR      63  57  82 SW8       30.06F
ORANGEBURG     CLOUDY    63  60  90 SW12      30.08R
BARNWELL       PTSUNNY   66  63  88 W12G17    30.11S
AIKEN          FAIR      63  59  88 W14G20    30.13R
MANNING        FAIR      63  57  82 SW5       30.07F
COLUMBIA       MOSUNNY   66  59  78 SW12      30.05S
SUMTER         MOSUNNY   65  59  80 SW15      30.02S
FLORENCE       MOSUNNY   66  60  81 W15G24    30.03S
MYRTLE BEACH   SUNNY     64  57  77 SW12      30.07R
N MYRTLE BEACH MOSUNNY   66  60  81 SW12      30.03S

$$

GAZ063-065-086>088-099>101-113>116-118-119-134>141-150-181500-
...SOUTHEAST GEORGIA...

CITY           SKY/WX    TMP DP  RH WIND       PRES   REMARKS
SAVANNAH ARPT  PTSUNNY   64  59  83 W10       30.14R
HUNTER AAF     SUNNY     64  63  97 W10       30.12R
FORT STEWART   SUNNY     64  60  88 SW9       30.13R
STATESBORO     CLOUDY    63  63 100 W8        30.16R
SYLVANIA       CLOUDY   N/A N/A N/A W7        30.15R
CLAXTON        CLOUDY   N/A N/A N/A SW7       30.16R

...CSRA...CENTRAL AND FAR SOUTHEAST GEORGIA...

CITY           SKY/WX    TMP DP  RH WIND       PRES   REMARKS
THOMSON        MOSUNNY   67  64  90 W10       30.16R
AUGUSTA-BUSH   MOSUNNY   68  61  78 W9        30.10S
AUGUSTA-DANIEL MOSUNNY   67  59  75 W10       30.11R
SWAINSBORO     CLOUDY    64  63  94 MISG      30.16R
VIDALIA        CLOUDY    64  64 100 W7        30.17R
EASTMAN        CLOUDY    66  66  99 W3        30.20R
HAZLEHURST     CLOUDY    64  64 100 CALM      30.16R FOG
ALMA           FOG       62  62 100 W8        30.17R VSB 1
WAYCROSS       SUNNY     66  66 100 W8        30.18R
JESUP          FAIR      64  61  88 W3        30.17R
BAXLEY         CLOUDY    64  64 100 W8        30.16S
BRUNSWICK      SUNNY     66  63  88 SW8       30.17R
SAINT SIMONS   SUNNY     62  59  90 SW8       30.15S

$$

SCZ027-028-034-036>038-045-046-048>050-GAZ119-141-181500-
...LAKE AND SUPPLEMENTAL COASTAL OBSERVATIONS...

STATION/POSITION TIME  TEMP    WIND        PRES    WAVE   SWELL
                       AIR SEA DIR/SP/G            HT/PER HT/PER/DIR
                 (UTC) (F)     (DEG/KT/KT) (MB)    (FT/S) (FT/S/D)
WINYAH BAY       1330   63     250/  8     1018.0S
LAKE MURRAY      1420   64     260/ 14/ 20 1017.3
ACE BASIN NERRS  1330   60     230/  3     1019.0S
FORT PULASKI     1400   63 56  270/  8/ 11 1020.6
SAPELO ISLAND    1400   62     230/  5     1021.0

$$

ANZ835-935-AMZ111-154-330-350-352-354-370-450-454-472-181500-
...C-MAN AND BUOY OBSERVATIONS...

STATION/POSITION TIME  TEMP    WIND        PRES    WAVE   SWELL
                       AIR SEA DIR/SP/G            HT/PER HT/PER/DIR
                 (UTC) (F)     (DEG/KT/KT) (MB)    (FT/S) (FT/S/D)
BUOY 41004       1350   69 71  250/ 19/ 23 1018.5S   5/ 4   2/150/ 8
BUOY 41008       1350   61 59  210/ 10/ 12 1020.3R   2/ 8   2/ 80/ 8
FOLLY BEACH CMAN 1400   58     220/  8/ 10 1020.0R
CAPERS NEARSHORE 1308   56 54  250/  8/ 12 1018.9R
FRIPP NEARSHORE  1408   59 56  240/  8/ 10 1019.9R


STATION/POSITION TIME  TEMP    WIND        PRES    WAVE   SWELL
                       AIR SEA DIR/SP/G            HT/PER HT/PER/DIR
                 (UTC) (F)     (DEG/KT/KT) (MB)    (FT/S) (FT/S/D)
5E ST. MARYS GA  1400      61                N/A     2/ 8
FRYING PAN BUOY  1410   69 71  240/ 21/ 25 1017.5
BUOY 41025       1350   68 71  260/ 25/ 31 1013.5F   8/ 6   2/170/10
CAPE LOOKOUT NC  1400   62     240/ 14/ 17 1014.7R
BUOY 41002       1350   72 71  250/ 16/ 19 1019.1F   5/ 6   2/120/ 8
BUOY 41010       NOT AVBL
ST AUGUSTINE FL  1400   63 62  260/  5/  6 1023.4R


$$



USA.gov is the U.S. government's official web portal to all federal, state and local government web resources and services.